Time,TemperatureF,DewpointF,PressureIn,WindDirection,WindDirectionDegrees,WindSpeedMPH,WindSpeedGustMPH,Humidity,HourlyPrecipIn,Conditions,Clouds,dailyrainin,SoftwareType,DateUTC
2014-01-06 00:03:00,40.1,24.8,30.37,SE,131,13.0,15.0,54,0.00,,,0.00,Wunderground v.1.15,2014-01-06 07:03:00,
2014-01-06 00:09:00,39.9,25.0,30.37,SE,128,13.0,15.0,55,0.00,,,0.00,Wunderground v.1.15,2014-01-06 07:09:00,
2014-01-06 00:14:00,39.8,24.9,30.37,SE,128,10.0,12.0,55,0.00,,,0.00,Wunderground v.1.15,2014-01-06 07:14:00,
2014-01-06 00:19:00,39.6,24.7,30.38,SE,127,4.0,12.0,55,0.00,,,0.00,Wunderground v.1.15,2014-01-06 07:19:00,
2014-01-06 00:25:00,39.5,25.1,30.38,SE,128,15.0,16.0,56,0.00,,,0.00,Wunderground v.1.15,2014-01-06 07:25:00,
2014-01-06 00:30:00,39.4,24.6,30.38,SE,132,11.0,11.0,55,0.00,,,0.00,Wunderground v.1.15,2014-01-06 07:30:00,
2014-01-06 00:35:00,39.3,24.5,30.38,SE,128,13.0,16.0,55,0.00,,,0.00,Wunderground v.1.15,2014-01-06 07:35:00,
2014-01-06 00:40:00,39.2,24.4,30.39,SE,131,8.0,13.0,55,0.00,,,0.00,Wunderground v.1.15,2014-01-06 07:40:00,
2014-01-06 00:45:00,39.1,24.3,30.39,SE,133,14.0,19.0,55,0.00,,,0.00,Wunderground v.1.15,2014-01-06 07:45:00,
2014-01-06 00:50:00,39.0,24.2,30.39,SE,130,11.0,13.0,55,0.00,,,0.00,Wunderground v.1.15,2014-01-06 07:50:00,
2014-01-06 00:55:00,38.9,24.1,30.40,SE,130,9.0,19.0,55,0.00,,,0.00,Wunderground v.1.15,2014-01-06 07:55:00,
2014-01-06 01:00:00,38.8,24.0,30.39,SE,131,13.0,13.0,55,0.00,,,0.00,Wunderground v.1.15,2014-01-06 08:00:00,
2014-01-06 01:05:00,38.7,24.3,30.40,SE,130,11.0,20.0,56,0.00,,,0.00,Wunderground v.1.15,2014-01-06 08:05:00,
2014-01-06 01:10:00,38.6,24.2,30.40,SE,128,11.0,14.0,56,0.00,,,0.00,Wunderground v.1.15,2014-01-06 08:10:00,
2014-01-06 01:15:00,38.5,24.6,30.40,SE,129,9.0,17.0,57,0.00,,,0.00,Wunderground v.1.15,2014-01-06 08:15:00,
2014-01-06 01:20:00,38.3,24.8,30.40,SE,127,12.0,13.0,58,0.00,,,0.00,Wunderground v.1.15,2014-01-06 08:20:00,
2014-01-06 01:25:00,38.1,24.6,30.40,SE,129,9.0,13.0,58,0.00,,,0.00,Wunderground v.1.15,2014-01-06 08:25:00,
2014-01-06 01:30:00,37.9,24.8,30.41,SE,127,8.0,8.0,59,0.00,,,0.00,Wunderground v.1.15,2014-01-06 08:30:00,
2014-01-06 01:35:00,37.6,25.0,30.41,SE,125,11.0,12.0,60,0.00,,,0.00,Wunderground v.1.15,2014-01-06 08:35:00,
2014-01-06 01:40:00,37.5,24.9,30.41,SE,127,7.0,10.0,60,0.00,,,0.00,Wunderground v.1.15,2014-01-06 08:40:00,
2014-01-06 01:45:00,37.4,24.8,30.41,SE,128,11.0,14.0,60,0.00,,,0.00,Wunderground v.1.15,2014-01-06 08:45:00,
2014-01-06 01:50:00,37.3,24.7,30.41,SE,129,11.0,13.0,60,0.00,,,0.00,Wunderground v.1.15,2014-01-06 08:50:00,
2014-01-06 01:56:00,37.3,24.3,30.42,SE,127,8.0,15.0,59,0.00,,,0.00,Wunderground v.1.15,2014-01-06 08:56:00,
2014-01-06 02:01:00,37.2,24.2,30.42,SE,127,5.0,9.0,59,0.00,,,0.00,Wunderground v.1.15,2014-01-06 09:01:00,
2014-01-06 02:06:00,37.1,24.5,30.42,SE,129,7.0,15.0,60,0.00,,,0.00,Wunderground v.1.15,2014-01-06 09:06:00,
2014-01-06 02:11:00,37.0,24.0,30.42,SE,129,9.0,17.0,59,0.00,,,0.00,Wunderground v.1.15,2014-01-06 09:11:00,
2014-01-06 02:16:00,37.0,24.4,30.42,SE,127,10.0,17.0,60,0.00,,,0.00,Wunderground v.1.15,2014-01-06 09:16:00,
2014-01-06 02:21:00,36.9,24.3,30.43,SE,128,13.0,13.0,60,0.00,,,0.00,Wunderground v.1.15,2014-01-06 09:21:00,
2014-01-06 02:26:00,36.9,24.3,30.42,SE,129,6.0,16.0,60,0.00,,,0.00,Wunderground v.1.15,2014-01-06 09:26:00,
2014-01-06 02:31:00,36.8,23.8,30.43,SE,131,18.0,18.0,59,0.00,,,0.00,Wunderground v.1.15,2014-01-06 09:31:00,
2014-01-06 02:36:00,36.8,23.8,30.43,SE,127,9.0,20.0,59,0.00,,,0.00,Wunderground v.1.15,2014-01-06 09:36:00,
2014-01-06 02:41:00,36.7,23.7,30.43,SE,127,7.0,13.0,59,0.00,,,0.00,Wunderground v.1.15,2014-01-06 09:41:00,
2014-01-06 02:46:00,36.5,23.5,30.44,SE,129,10.0,15.0,59,0.00,,,0.00,Wunderground v.1.15,2014-01-06 09:46:00,
2014-01-06 02:51:00,36.5,23.5,30.45,SE,127,10.0,13.0,59,0.00,,,0.00,Wunderground v.1.15,2014-01-06 09:51:00,
2014-01-06 02:56:00,36.3,23.3,30.45,SE,126,6.0,13.0,59,0.00,,,0.00,Wunderground v.1.15,2014-01-06 09:56:00,
2014-01-06 03:01:00,36.2,23.6,30.45,SE,127,7.0,8.0,60,0.00,,,0.00,Wunderground v.1.15,2014-01-06 10:01:00,
2014-01-06 03:06:00,36.1,23.5,30.45,SE,126,7.0,11.0,60,0.00,,,0.00,Wunderground v.1.15,2014-01-06 10:06:00,
2014-01-06 03:11:00,36.0,23.4,30.45,SE,127,13.0,14.0,60,0.00,,,0.00,Wunderground v.1.15,2014-01-06 10:11:00,
2014-01-06 03:16:00,35.9,23.4,30.45,SE,126,6.0,14.0,60,0.00,,,0.00,Wunderground v.1.15,2014-01-06 10:16:00,
2014-01-06 03:21:00,35.9,23.4,30.45,SE,127,9.0,14.0,60,0.00,,,0.00,Wunderground v.1.15,2014-01-06 10:21:00,
2014-01-06 03:26:00,35.8,23.3,30.45,SE,128,13.0,17.0,60,0.00,,,0.00,Wunderground v.1.15,2014-01-06 10:26:00,
2014-01-06 03:31:00,35.8,23.3,30.45,SE,128,10.0,14.0,60,0.00,,,0.00,Wunderground v.1.15,2014-01-06 10:31:00,
2014-01-06 03:36:00,35.7,23.2,30.45,SE,128,10.0,16.0,60,0.00,,,0.00,Wunderground v.1.15,2014-01-06 10:36:00,
2014-01-06 03:41:00,35.7,23.6,30.46,SE,128,6.0,12.0,61,0.00,,,0.00,Wunderground v.1.15,2014-01-06 10:41:00,
2014-01-06 03:46:00,35.6,23.5,30.46,SE,127,11.0,13.0,61,0.00,,,0.00,Wunderground v.1.15,2014-01-06 10:46:00,
2014-01-06 03:51:00,35.5,23.4,30.45,SE,127,8.0,11.0,61,0.00,,,0.00,Wunderground v.1.15,2014-01-06 10:51:00,
2014-01-06 03:56:00,35.4,23.7,30.45,SE,126,5.0,11.0,62,0.00,,,0.00,Wunderground v.1.15,2014-01-06 10:56:00,
2014-01-06 04:01:00,35.4,23.3,30.46,SE,128,8.0,21.0,61,0.00,,,0.00,Wunderground v.1.15,2014-01-06 11:01:00,
2014-01-06 04:06:00,35.3,23.2,30.46,SE,127,11.0,21.0,61,0.00,,,0.00,Wunderground v.1.15,2014-01-06 11:06:00,
2014-01-06 04:11:00,35.3,23.2,30.46,SE,128,10.0,11.0,61,0.00,,,0.00,Wunderground v.1.15,2014-01-06 11:11:00,
2014-01-06 04:16:00,35.2,23.1,30.47,SE,127,9.0,15.0,61,0.00,,,0.00,Wunderground v.1.15,2014-01-06 11:16:00,
2014-01-06 04:21:00,35.1,23.4,30.47,SE,127,7.0,10.0,62,0.00,,,0.00,Wunderground v.1.15,2014-01-06 11:21:00,
2014-01-06 04:26:00,35.0,23.3,30.48,SE,127,8.0,11.0,62,0.00,,,0.00,Wunderground v.1.15,2014-01-06 11:26:00,
2014-01-06 04:31:00,35.0,22.9,30.48,SE,127,9.0,12.0,61,0.00,,,0.00,Wunderground v.1.15,2014-01-06 11:31:00,
2014-01-06 04:36:00,34.9,22.8,30.48,SE,127,5.0,14.0,61,0.00,,,0.00,Wunderground v.1.15,2014-01-06 11:36:00,
2014-01-06 04:41:00,34.9,22.8,30.48,SE,127,11.0,17.0,61,0.00,,,0.00,Wunderground v.1.15,2014-01-06 11:41:00,
2014-01-06 04:46:00,34.9,22.8,30.48,SE,127,6.0,17.0,61,0.00,,,0.00,Wunderground v.1.15,2014-01-06 11:46:00,
2014-01-06 04:51:00,34.8,22.7,30.48,SE,129,5.0,12.0,61,0.00,,,0.00,Wunderground v.1.15,2014-01-06 11:51:00,
2014-01-06 04:56:00,34.7,23.0,30.49,SE,127,8.0,12.0,62,0.00,,,0.00,Wunderground v.1.15,2014-01-06 11:56:00,
2014-01-06 05:01:00,34.5,22.8,30.50,SE,125,5.0,12.0,62,0.00,,,0.00,Wunderground v.1.15,2014-01-06 12:01:00,
2014-01-06 05:06:00,34.4,23.1,30.50,SE,127,4.0,14.0,63,0.00,,,0.00,Wunderground v.1.15,2014-01-06 12:06:00,
2014-01-06 05:11:00,34.3,23.0,30.51,SE,126,9.0,17.0,63,0.00,,,0.00,Wunderground v.1.15,2014-01-06 12:11:00,
2014-01-06 05:16:00,34.2,22.5,30.51,SE,128,10.0,17.0,62,0.00,,,0.00,Wunderground v.1.15,2014-01-06 12:16:00,
2014-01-06 05:21:00,34.2,22.9,30.51,SE,129,8.0,13.0,63,0.00,,,0.00,Wunderground v.1.15,2014-01-06 12:21:00,
2014-01-06 05:26:00,34.2,22.9,30.51,SE,125,7.0,15.0,63,0.00,,,0.00,Wunderground v.1.15,2014-01-06 12:26:00,
2014-01-06 05:31:00,34.2,22.9,30.51,SE,127,9.0,14.0,63,0.00,,,0.00,Wunderground v.1.15,2014-01-06 12:31:00,
2014-01-06 05:36:00,34.0,22.7,30.51,SE,127,8.0,15.0,63,0.00,,,0.00,Wunderground v.1.15,2014-01-06 12:36:00,
2014-01-06 05:41:00,33.8,22.5,30.52,SE,129,11.0,19.0,63,0.00,,,0.00,Wunderground v.1.15,2014-01-06 12:41:00,
2014-01-06 05:46:00,33.6,22.3,30.52,SE,131,12.0,20.0,63,0.00,,,0.00,Wunderground v.1.15,2014-01-06 12:46:00,
2014-01-06 05:51:00,33.4,22.1,30.52,SE,128,11.0,19.0,63,0.00,,,0.00,Wunderground v.1.15,2014-01-06 12:51:00,
2014-01-06 05:56:00,33.3,22.1,30.53,SE,127,13.0,19.0,63,0.00,,,0.00,Wunderground v.1.15,2014-01-06 12:56:00,
2014-01-06 06:01:00,33.2,22.0,30.53,SE,128,7.0,16.0,63,0.00,,,0.00,Wunderground v.1.15,2014-01-06 13:01:00,
2014-01-06 06:07:00,33.2,22.3,30.53,SE,127,13.0,17.0,64,0.00,,,0.00,Wunderground v.1.15,2014-01-06 13:07:00,
2014-01-06 06:12:00,33.1,22.2,30.54,SE,129,12.0,14.0,64,0.00,,,0.00,Wunderground v.1.15,2014-01-06 13:12:00,
2014-01-06 06:17:00,33.0,22.1,30.54,SE,127,9.0,16.0,64,0.00,,,0.00,Wunderground v.1.15,2014-01-06 13:17:00,
2014-01-06 06:22:00,33.0,22.1,30.55,SE,126,9.0,11.0,64,0.00,,,0.00,Wunderground v.1.15,2014-01-06 13:22:00,
2014-01-06 06:27:00,32.9,22.0,30.55,SE,130,8.0,21.0,64,0.00,,,0.00,Wunderground v.1.15,2014-01-06 13:27:00,
2014-01-06 06:32:00,32.7,21.9,30.56,SE,129,10.0,15.0,64,0.00,,,0.00,Wunderground v.1.15,2014-01-06 13:32:00,
2014-01-06 06:37:00,32.6,21.8,30.57,SE,131,10.0,21.0,64,0.00,,,0.00,Wunderground v.1.15,2014-01-06 13:37:00,
2014-01-06 06:42:00,32.5,21.7,30.57,SE,125,8.0,15.0,64,0.00,,,0.00,Wunderground v.1.15,2014-01-06 13:42:00,
2014-01-06 06:47:00,32.5,22.0,30.57,SE,134,15.0,17.0,65,0.00,,,0.00,Wunderground v.1.15,2014-01-06 13:47:00,
2014-01-06 06:52:00,32.5,22.0,30.58,SE,129,11.0,16.0,65,0.00,,,0.00,Wunderground v.1.15,2014-01-06 13:52:00,
2014-01-06 06:57:00,32.4,21.9,30.58,SE,128,12.0,19.0,65,0.00,,,0.00,Wunderground v.1.15,2014-01-06 13:57:00,
2014-01-06 07:02:00,32.3,21.8,30.58,SE,127,8.0,17.0,65,0.00,,,0.00,Wunderground v.1.15,2014-01-06 14:02:00,
2014-01-06 07:03:00,32.3,21.8,30.58,SE,130,10.0,17.0,65,0.00,,,0.00,Wunderground v.1.15,2014-01-06 14:03:00,
2014-01-06 07:08:00,32.2,21.7,30.59,SE,128,10.0,18.0,65,0.00,,,0.00,Wunderground v.1.15,2014-01-06 14:08:00,
2014-01-06 07:13:00,32.1,21.7,30.59,SE,127,8.0,18.0,65,0.00,,,0.00,Wunderground v.1.15,2014-01-06 14:13:00,
2014-01-06 07:18:00,32.1,21.7,30.60,SE,129,9.0,18.0,65,0.00,,,0.00,Wunderground v.1.15,2014-01-06 14:18:00,
2014-01-06 07:23:00,32.3,21.8,30.60,SE,127,11.0,13.0,65,0.00,,,0.00,Wunderground v.1.15,2014-01-06 14:23:00,
2014-01-06 07:28:00,32.2,21.4,30.60,SE,127,13.0,23.0,64,0.00,,,0.00,Wunderground v.1.15,2014-01-06 14:28:00,
2014-01-06 07:33:00,32.1,21.3,30.61,SE,128,16.0,22.0,64,0.00,,,0.00,Wunderground v.1.15,2014-01-06 14:33:00,
2014-01-06 07:38:00,32.1,21.3,30.61,SE,130,14.0,22.0,64,0.00,,,0.00,Wunderground v.1.15,2014-01-06 14:38:00,
2014-01-06 07:43:00,32.1,21.3,30.62,SE,128,12.0,20.0,64,0.00,,,0.00,Wunderground v.1.15,2014-01-06 14:43:00,
2014-01-06 07:48:00,32.2,21.0,30.62,SE,131,13.0,21.0,63,0.00,,,0.00,Wunderground v.1.15,2014-01-06 14:48:00,
2014-01-06 07:53:00,32.3,21.5,30.62,SE,131,15.0,19.0,64,0.00,,,0.00,Wunderground v.1.15,2014-01-06 14:53:00,
2014-01-06 07:58:00,32.5,21.7,30.62,SE,127,7.0,19.0,64,0.00,,,0.00,Wunderground v.1.15,2014-01-06 14:58:00,
2014-01-06 08:03:00,32.4,21.2,30.63,SE,125,13.0,21.0,63,0.00,,,0.00,Wunderground v.1.15,2014-01-06 15:03:00,
2014-01-06 08:08:00,32.4,21.2,30.63,SE,133,18.0,21.0,63,0.00,,,0.00,Wunderground v.1.15,2014-01-06 15:08:00,
2014-01-06 08:13:00,32.4,21.2,30.63,SE,127,17.0,18.0,63,0.00,,,0.00,Wunderground v.1.15,2014-01-06 15:13:00,
2014-01-06 08:18:00,32.5,21.3,30.63,SE,131,13.0,18.0,63,0.00,,,0.00,Wunderground v.1.15,2014-01-06 15:18:00,
2014-01-06 08:23:00,32.8,21.6,30.63,SE,139,12.0,17.0,63,0.00,,,0.00,Wunderground v.1.15,2014-01-06 15:23:00,
2014-01-06 08:28:00,32.7,21.1,30.64,SE,125,15.0,24.0,62,0.00,,,0.00,Wunderground v.1.15,2014-01-06 15:28:00,
2014-01-06 08:33:00,32.7,21.1,30.64,SE,131,12.0,21.0,62,0.00,,,0.00,Wunderground v.1.15,2014-01-06 15:33:00,
2014-01-06 08:38:00,32.9,21.7,30.64,SE,131,14.0,21.0,63,0.00,,,0.00,Wunderground v.1.15,2014-01-06 15:38:00,
2014-01-06 08:43:00,32.9,21.7,30.65,SE,126,11.0,21.0,63,0.00,,,0.00,Wunderground v.1.15,2014-01-06 15:43:00,
2014-01-06 08:48:00,32.7,21.5,30.65,SE,131,14.0,21.0,63,0.00,,,0.00,Wunderground v.1.15,2014-01-06 15:48:00,
2014-01-06 08:53:00,32.9,21.7,30.65,SE,132,15.0,18.0,63,0.00,,,0.00,Wunderground v.1.15,2014-01-06 15:53:00,
2014-01-06 08:58:00,32.7,21.1,30.65,SE,129,6.0,23.0,62,0.00,,,0.00,Wunderground v.1.15,2014-01-06 15:58:00,
2014-01-06 09:03:00,33.1,21.1,30.66,SE,131,17.0,19.0,61,0.00,,,0.00,Wunderground v.1.15,2014-01-06 16:03:00,
2014-01-06 09:08:00,33.0,21.4,30.67,SE,131,13.0,19.0,62,0.00,,,0.00,Wunderground v.1.15,2014-01-06 16:08:00,
2014-01-06 09:13:00,32.8,20.8,30.67,SE,132,18.0,21.0,61,0.00,,,0.00,Wunderground v.1.15,2014-01-06 16:13:00,
2014-01-06 09:18:00,32.8,20.8,30.67,SE,129,13.0,21.0,61,0.00,,,0.00,Wunderground v.1.15,2014-01-06 16:18:00,
2014-01-06 09:23:00,32.9,20.5,30.67,SE,130,17.0,23.0,60,0.00,,,0.00,Wunderground v.1.15,2014-01-06 16:23:00,
2014-01-06 09:28:00,33.1,20.3,30.67,SE,139,20.0,23.0,59,0.00,,,0.00,Wunderground v.1.15,2014-01-06 16:28:00,
2014-01-06 09:33:00,33.1,20.7,30.66,SE,131,10.0,24.0,60,0.00,,,0.00,Wunderground v.1.15,2014-01-06 16:33:00,
2014-01-06 09:38:00,33.2,20.4,30.65,SE,131,14.0,24.0,59,0.00,,,0.00,Wunderground v.1.15,2014-01-06 16:38:00,
2014-01-06 09:43:00,33.1,20.7,30.65,SE,129,11.0,24.0,60,0.00,,,0.00,Wunderground v.1.15,2014-01-06 16:43:00,
2014-01-06 09:48:00,33.2,20.8,30.65,SE,128,20.0,24.0,60,0.00,,,0.00,Wunderground v.1.15,2014-01-06 16:48:00,
2014-01-06 09:53:00,33.3,21.3,30.65,SE,128,11.0,23.0,61,0.00,,,0.00,Wunderground v.1.15,2014-01-06 16:53:00,
2014-01-06 09:58:00,33.3,20.9,30.66,SE,134,18.0,23.0,60,0.00,,,0.00,Wunderground v.1.15,2014-01-06 16:58:00,
2014-01-06 10:03:00,33.4,21.4,30.66,SE,131,14.0,21.0,61,0.00,,,0.00,Wunderground v.1.15,2014-01-06 17:03:00,
2014-01-06 10:08:00,33.4,21.0,30.66,SE,124,16.0,22.0,60,0.00,,,0.00,Wunderground v.1.15,2014-01-06 17:08:00,
2014-01-06 10:13:00,33.8,21.4,30.67,SE,127,10.0,14.0,60,0.00,,,0.00,Wunderground v.1.15,2014-01-06 17:13:00,
2014-01-06 10:18:00,34.0,20.8,30.66,SE,128,13.0,20.0,58,0.00,,,0.00,Wunderground v.1.15,2014-01-06 17:18:00,
2014-01-06 10:23:00,34.0,20.3,30.66,SE,134,18.0,18.0,57,0.00,,,0.00,Wunderground v.1.15,2014-01-06 17:23:00,
2014-01-06 10:28:00,34.1,20.4,30.66,SE,127,17.0,20.0,57,0.00,,,0.00,Wunderground v.1.15,2014-01-06 17:28:00,
2014-01-06 10:33:00,34.0,20.3,30.65,SE,130,5.0,19.0,57,0.00,,,0.00,Wunderground v.1.15,2014-01-06 17:33:00,
2014-01-06 10:38:00,33.7,20.1,30.65,SE,129,14.0,23.0,57,0.00,,,0.00,Wunderground v.1.15,2014-01-06 17:38:00,
2014-01-06 10:43:00,33.9,20.3,30.65,SE,130,14.0,16.0,57,0.00,,,0.00,Wunderground v.1.15,2014-01-06 17:43:00,
2014-01-06 10:48:00,34.1,20.4,30.65,SE,127,6.0,18.0,57,0.00,,,0.00,Wunderground v.1.15,2014-01-06 17:48:00,
2014-01-06 10:53:00,34.1,19.6,30.65,SE,128,14.0,18.0,55,0.00,,,0.00,Wunderground v.1.15,2014-01-06 17:53:00,
2014-01-06 10:58:00,34.2,19.7,30.65,SE,130,6.0,18.0,55,0.00,,,0.00,Wunderground v.1.15,2014-01-06 17:58:00,
2014-01-06 11:04:00,34.1,20.0,30.64,SE,130,14.0,18.0,56,0.00,,,0.00,Wunderground v.1.15,2014-01-06 18:04:00,
2014-01-06 11:09:00,34.3,20.2,30.64,SE,129,12.0,18.0,56,0.00,,,0.00,Wunderground v.1.15,2014-01-06 18:09:00,
2014-01-06 11:14:00,34.3,18.9,30.64,SE,129,11.0,20.0,53,0.00,,,0.00,Wunderground v.1.15,2014-01-06 18:14:00,
2014-01-06 11:19:00,34.4,18.6,30.64,SE,128,9.0,20.0,52,0.00,,,0.00,Wunderground v.1.15,2014-01-06 18:19:00,
2014-01-06 11:24:00,34.7,19.3,30.63,SE,131,17.0,17.0,53,0.00,,,0.00,Wunderground v.1.15,2014-01-06 18:24:00,
2014-01-06 11:29:00,34.4,17.7,30.63,SE,130,11.0,21.0,50,0.00,,,0.00,Wunderground v.1.15,2014-01-06 18:29:00,
2014-01-06 11:34:00,34.2,17.9,30.62,SE,132,13.0,19.0,51,0.00,,,0.00,Wunderground v.1.15,2014-01-06 18:34:00,
2014-01-06 11:39:00,34.3,18.9,30.61,SE,130,13.0,19.0,53,0.00,,,0.00,Wunderground v.1.15,2014-01-06 18:39:00,
2014-01-06 11:44:00,34.5,18.2,30.61,SE,132,17.0,18.0,51,0.00,,,0.00,Wunderground v.1.15,2014-01-06 18:44:00,
2014-01-06 11:49:00,34.7,17.5,30.61,SE,134,18.0,18.0,49,0.00,,,0.00,Wunderground v.1.15,2014-01-06 18:49:00,
2014-01-06 11:54:00,34.9,17.7,30.61,SE,131,14.0,20.0,49,0.00,,,0.00,Wunderground v.1.15,2014-01-06 18:54:00,
2014-01-06 11:59:00,35.0,18.7,30.61,SE,131,15.0,20.0,51,0.00,,,0.00,Wunderground v.1.15,2014-01-06 18:59:00,
2014-01-06 12:04:00,35.1,17.4,30.61,SE,127,16.0,19.0,48,0.00,,,0.00,Wunderground v.1.15,2014-01-06 19:04:00,
2014-01-06 12:09:00,34.9,17.7,30.61,SE,126,8.0,20.0,49,0.00,,,0.00,Wunderground v.1.15,2014-01-06 19:09:00,
2014-01-06 12:14:00,34.9,17.7,30.61,SE,133,16.0,19.0,49,0.00,,,0.00,Wunderground v.1.15,2014-01-06 19:14:00,
2014-01-06 12:19:00,35.1,17.4,30.61,SE,128,13.0,19.0,48,0.00,,,0.00,Wunderground v.1.15,2014-01-06 19:19:00,
2014-01-06 12:24:00,34.8,17.6,30.61,SE,128,12.0,17.0,49,0.00,,,0.00,Wunderground v.1.15,2014-01-06 19:24:00,
2014-01-06 12:29:00,34.9,17.2,30.61,SE,130,11.0,19.0,48,0.00,,,0.00,Wunderground v.1.15,2014-01-06 19:29:00,
2014-01-06 12:34:00,34.7,17.0,30.61,SE,130,7.0,17.0,48,0.00,,,0.00,Wunderground v.1.15,2014-01-06 19:34:00,
2014-01-06 12:39:00,34.6,16.9,30.61,SE,127,10.0,17.0,48,0.00,,,0.00,Wunderground v.1.15,2014-01-06 19:39:00,
2014-01-06 12:44:00,34.9,16.7,30.61,SE,127,8.0,13.0,47,0.00,,,0.00,Wunderground v.1.15,2014-01-06 19:44:00,
2014-01-06 12:49:00,34.8,17.6,30.61,SE,127,11.0,13.0,49,0.00,,,0.00,Wunderground v.1.15,2014-01-06 19:49:00,
2014-01-06 12:54:00,35.0,18.2,30.62,SE,127,12.0,15.0,50,0.00,,,0.00,Wunderground v.1.15,2014-01-06 19:54:00,
2014-01-06 12:59:00,35.1,17.8,30.62,SE,128,12.0,15.0,49,0.00,,,0.00,Wunderground v.1.15,2014-01-06 19:59:00,
2014-01-06 13:04:00,35.1,17.4,30.62,SE,128,10.0,14.0,48,0.00,,,0.00,Wunderground v.1.15,2014-01-06 20:04:00,
2014-01-06 13:09:00,35.3,17.5,30.62,SE,128,11.0,14.0,48,0.00,,,0.00,Wunderground v.1.15,2014-01-06 20:09:00,
2014-01-06 13:14:00,35.2,17.4,30.61,SE,127,14.0,18.0,48,0.00,,,0.00,Wunderground v.1.15,2014-01-06 20:14:00,
2014-01-06 13:19:00,35.2,17.0,30.61,SE,127,9.0,18.0,47,0.00,,,0.00,Wunderground v.1.15,2014-01-06 20:19:00,
2014-01-06 13:24:00,35.2,17.4,30.61,SE,128,12.0,17.0,48,0.00,,,0.00,Wunderground v.1.15,2014-01-06 20:24:00,
2014-01-06 13:29:00,35.3,17.5,30.61,SE,130,9.0,17.0,48,0.00,,,0.00,Wunderground v.1.15,2014-01-06 20:29:00,
2014-01-06 13:34:00,35.1,17.4,30.60,SE,127,7.0,17.0,48,0.00,,,0.00,Wunderground v.1.15,2014-01-06 20:34:00,
2014-01-06 13:39:00,35.2,17.4,30.61,SE,134,11.0,17.0,48,0.00,,,0.00,Wunderground v.1.15,2014-01-06 20:39:00,
2014-01-06 13:44:00,35.2,17.4,30.61,SE,129,10.0,16.0,48,0.00,,,0.00,Wunderground v.1.15,2014-01-06 20:44:00,
2014-01-06 13:49:00,35.2,17.4,30.60,SE,126,9.0,16.0,48,0.00,,,0.00,Wunderground v.1.15,2014-01-06 20:49:00,
2014-01-06 13:54:00,35.3,18.0,30.60,SE,128,15.0,15.0,49,0.00,,,0.00,Wunderground v.1.15,2014-01-06 20:54:00,
2014-01-06 13:59:00,35.3,17.5,30.60,SE,129,9.0,15.0,48,0.00,,,0.00,Wunderground v.1.15,2014-01-06 20:59:00,
2014-01-06 14:04:00,35.3,18.0,30.60,SE,126,11.0,17.0,49,0.00,,,0.00,Wunderground v.1.15,2014-01-06 21:04:00,
2014-01-06 14:09:00,35.3,18.0,30.60,SE,125,9.0,17.0,49,0.00,,,0.00,Wunderground v.1.15,2014-01-06 21:09:00,
2014-01-06 14:14:00,35.4,18.1,30.61,SE,126,12.0,16.0,49,0.00,,,0.00,Wunderground v.1.15,2014-01-06 21:14:00,
2014-01-06 14:19:00,35.4,17.6,30.62,SE,124,10.0,16.0,48,0.00,,,0.00,Wunderground v.1.15,2014-01-06 21:19:00,
2014-01-06 14:24:00,35.6,17.8,30.61,SE,124,5.0,13.0,48,0.00,,,0.00,Wunderground v.1.15,2014-01-06 21:24:00,
2014-01-06 14:29:00,35.6,17.3,30.61,SE,125,8.0,15.0,47,0.00,,,0.00,Wunderground v.1.15,2014-01-06 21:29:00,
2014-01-06 14:34:00,35.7,17.9,30.61,SE,126,5.0,15.0,48,0.00,,,0.00,Wunderground v.1.15,2014-01-06 21:34:00,
2014-01-06 14:39:00,35.7,17.9,30.61,SE,126,8.0,15.0,48,0.00,,,0.00,Wunderground v.1.15,2014-01-06 21:39:00,
2014-01-06 14:44:00,35.6,17.3,30.61,SE,130,12.0,13.0,47,0.00,,,0.00,Wunderground v.1.15,2014-01-06 21:44:00,
2014-01-06 14:49:00,35.7,17.9,30.61,SE,126,5.0,16.0,48,0.00,,,0.00,Wunderground v.1.15,2014-01-06 21:49:00,
2014-01-06 14:54:00,35.7,17.4,30.60,SE,126,7.0,13.0,47,0.00,,,0.00,Wunderground v.1.15,2014-01-06 21:54:00,
2014-01-06 14:59:00,35.6,17.3,30.60,SE,128,8.0,14.0,47,0.00,,,0.00,Wunderground v.1.15,2014-01-06 21:59:00,
2014-01-06 15:04:00,35.6,17.3,30.61,SE,128,12.0,16.0,47,0.00,,,0.00,Wunderground v.1.15,2014-01-06 22:04:00,
2014-01-06 15:09:00,35.4,16.6,30.61,SE,128,12.0,17.0,46,0.00,,,0.00,Wunderground v.1.15,2014-01-06 22:09:00,
2014-01-06 15:14:00,35.3,16.6,30.62,SE,129,11.0,14.0,46,0.00,,,0.00,Wunderground v.1.15,2014-01-06 22:14:00,
2014-01-06 15:19:00,35.5,16.7,30.63,SE,126,7.0,14.0,46,0.00,,,0.00,Wunderground v.1.15,2014-01-06 22:19:00,
2014-01-06 15:24:00,35.6,17.3,30.63,SE,125,6.0,12.0,47,0.00,,,0.00,Wunderground v.1.15,2014-01-06 22:24:00,
2014-01-06 15:29:00,35.7,16.9,30.63,SE,127,5.0,12.0,46,0.00,,,0.00,Wunderground v.1.15,2014-01-06 22:29:00,
2014-01-06 15:34:00,35.5,16.2,30.63,SE,127,11.0,12.0,45,0.00,,,0.00,Wunderground v.1.15,2014-01-06 22:34:00,
2014-01-06 15:39:00,35.4,16.1,30.63,SE,127,6.0,12.0,45,0.00,,,0.00,Wunderground v.1.15,2014-01-06 22:39:00,
2014-01-06 15:44:00,35.5,16.7,30.63,SE,128,7.0,12.0,46,0.00,,,0.00,Wunderground v.1.15,2014-01-06 22:44:00,
2014-01-06 15:49:00,35.4,17.1,30.63,SE,128,8.0,12.0,47,0.00,,,0.00,Wunderground v.1.15,2014-01-06 22:49:00,
2014-01-06 15:54:00,35.3,16.6,30.63,SE,127,6.0,11.0,46,0.00,,,0.00,Wunderground v.1.15,2014-01-06 22:54:00,
2014-01-06 15:59:00,35.2,17.0,30.64,SE,126,8.0,11.0,47,0.00,,,0.00,Wunderground v.1.15,2014-01-06 22:59:00,
2014-01-06 16:04:00,35.1,16.4,30.63,SE,126,7.0,9.0,46,0.00,,,0.00,Wunderground v.1.15,2014-01-06 23:04:00,
2014-01-06 16:09:00,35.0,15.8,30.64,SE,126,6.0,11.0,45,0.00,,,0.00,Wunderground v.1.15,2014-01-06 23:09:00,
2014-01-06 16:14:00,35.0,15.8,30.64,SE,125,5.0,8.0,45,0.00,,,0.00,Wunderground v.1.15,2014-01-06 23:14:00,
2014-01-06 16:19:00,35.0,16.3,30.64,SE,126,8.0,9.0,46,0.00,,,0.00,Wunderground v.1.15,2014-01-06 23:19:00,
2014-01-06 16:24:00,35.0,16.3,30.64,SE,127,5.0,10.0,46,0.00,,,0.00,Wunderground v.1.15,2014-01-06 23:24:00,
2014-01-06 16:29:00,34.9,16.2,30.64,SE,127,2.0,10.0,46,0.00,,,0.00,Wunderground v.1.15,2014-01-06 23:29:00,
2014-01-06 16:34:00,34.9,16.7,30.63,SE,127,4.0,8.0,47,0.00,,,0.00,Wunderground v.1.15,2014-01-06 23:34:00,
2014-01-06 16:39:00,34.7,16.5,30.63,SE,128,6.0,10.0,47,0.00,,,0.00,Wunderground v.1.15,2014-01-06 23:39:00,
2014-01-06 16:44:00,34.7,16.5,30.63,SE,129,4.0,7.0,47,0.00,,,0.00,Wunderground v.1.15,2014-01-06 23:44:00,
2014-01-06 16:49:00,34.6,16.4,30.63,SE,128,3.0,8.0,47,0.00,,,0.00,Wunderground v.1.15,2014-01-06 23:49:00,
2014-01-06 16:54:00,34.5,16.3,30.63,SE,127,5.0,7.0,47,0.00,,,0.00,Wunderground v.1.15,2014-01-06 23:54:00,
2014-01-06 16:59:00,34.4,16.2,30.63,SE,127,5.0,8.0,47,0.00,,,0.00,Wunderground v.1.15,2014-01-06 23:59:00,
2014-01-06 17:04:00,34.3,15.6,30.62,SE,127,7.0,10.0,46,0.00,,,0.00,Wunderground v.1.15,2014-01-07 00:04:00,
2014-01-06 17:09:00,34.2,16.0,30.62,SE,127,6.0,10.0,47,0.00,,,0.00,Wunderground v.1.15,2014-01-07 00:09:00,
2014-01-06 17:14:00,34.1,15.9,30.62,SE,127,3.0,8.0,47,0.00,,,0.00,Wunderground v.1.15,2014-01-07 00:14:00,
2014-01-06 17:19:00,34.0,15.9,30.62,SE,127,2.0,8.0,47,0.00,,,0.00,Wunderground v.1.15,2014-01-07 00:19:00,
2014-01-06 17:24:00,34.0,16.3,30.63,SE,127,4.0,6.0,48,0.00,,,0.00,Wunderground v.1.15,2014-01-07 00:24:00,
2014-01-06 17:29:00,34.0,15.9,30.64,SE,127,0.0,6.0,47,0.00,,,0.00,Wunderground v.1.15,2014-01-07 00:29:00,
2014-01-06 17:34:00,33.9,16.3,30.64,SE,127,0.0,3.0,48,0.00,,,0.00,Wunderground v.1.15,2014-01-07 00:34:00,
2014-01-06 17:39:00,33.8,16.2,30.64,SE,127,5.0,6.0,48,0.00,,,0.00,Wunderground v.1.15,2014-01-07 00:39:00,
2014-01-06 17:44:00,33.8,16.2,30.63,SE,127,4.0,7.0,48,0.00,,,0.00,Wunderground v.1.15,2014-01-07 00:44:00,
2014-01-06 17:49:00,33.8,16.2,30.63,SE,127,0.0,7.0,48,0.00,,,0.00,Wunderground v.1.15,2014-01-07 00:49:00,
2014-01-06 17:54:00,33.7,16.5,30.64,SE,127,5.0,6.0,49,0.00,,,0.00,Wunderground v.1.15,2014-01-07 00:54:00,
2014-01-06 17:59:00,33.7,16.1,30.64,SE,127,5.0,7.0,48,0.00,,,0.00,Wunderground v.1.15,2014-01-07 00:59:00,
2014-01-06 18:04:00,33.7,16.1,30.64,SE,127,5.0,6.0,48,0.00,,,0.00,Wunderground v.1.15,2014-01-07 01:04:00,
2014-01-06 18:09:00,33.7,16.1,30.64,SE,127,2.0,6.0,48,0.00,,,0.00,Wunderground v.1.15,2014-01-07 01:09:00,
2014-01-06 18:14:00,33.6,16.0,30.64,SE,127,6.0,8.0,48,0.00,,,0.00,Wunderground v.1.15,2014-01-07 01:14:00,
2014-01-06 18:19:00,33.5,15.9,30.64,SE,127,5.0,9.0,48,0.00,,,0.00,Wunderground v.1.15,2014-01-07 01:19:00,
2014-01-06 18:24:00,33.5,15.9,30.65,SE,127,3.0,9.0,48,0.00,,,0.00,Wunderground v.1.15,2014-01-07 01:24:00,
2014-01-06 18:29:00,33.4,15.3,30.66,SE,127,4.0,9.0,47,0.00,,,0.00,Wunderground v.1.15,2014-01-07 01:29:00,
2014-01-06 18:34:00,33.3,15.2,30.67,SE,127,5.0,6.0,47,0.00,,,0.00,Wunderground v.1.15,2014-01-07 01:34:00,
2014-01-06 18:39:00,33.1,15.5,30.67,SE,127,5.0,6.0,48,0.00,,,0.00,Wunderground v.1.15,2014-01-07 01:39:00,
2014-01-06 18:44:00,33.0,15.9,30.66,SE,127,5.0,5.0,49,0.00,,,0.00,Wunderground v.1.15,2014-01-07 01:44:00,
2014-01-06 18:49:00,33.0,15.4,30.66,SE,127,5.0,6.0,48,0.00,,,0.00,Wunderground v.1.15,2014-01-07 01:49:00,
2014-01-06 18:54:00,33.0,15.9,30.66,SE,127,5.0,6.0,49,0.00,,,0.00,Wunderground v.1.15,2014-01-07 01:54:00,
2014-01-06 18:59:00,32.9,15.8,30.65,SE,127,4.0,6.0,49,0.00,,,0.00,Wunderground v.1.15,2014-01-07 01:59:00,
2014-01-06 19:04:00,32.9,15.8,30.65,SE,127,4.0,8.0,49,0.00,,,0.00,Wunderground v.1.15,2014-01-07 02:04:00,
2014-01-06 19:09:00,32.8,15.7,30.65,SE,127,5.0,8.0,49,0.00,,,0.00,Wunderground v.1.15,2014-01-07 02:09:00,
2014-01-06 19:14:00,32.8,15.7,30.65,SE,127,5.0,9.0,49,0.00,,,0.00,Wunderground v.1.15,2014-01-07 02:14:00,
2014-01-06 19:19:00,32.8,15.7,30.66,SE,127,3.0,9.0,49,0.00,,,0.00,Wunderground v.1.15,2014-01-07 02:19:00,
2014-01-06 19:24:00,32.8,15.7,30.66,SE,127,2.0,7.0,49,0.00,,,0.00,Wunderground v.1.15,2014-01-07 02:24:00,
2014-01-06 19:29:00,32.7,15.1,30.67,SE,127,3.0,7.0,48,0.00,,,0.00,Wunderground v.1.15,2014-01-07 02:29:00,
2014-01-06 19:34:00,32.7,15.1,30.67,SE,127,4.0,7.0,48,0.00,,,0.00,Wunderground v.1.15,2014-01-07 02:34:00,
2014-01-06 19:39:00,32.5,15.4,30.67,SE,127,4.0,7.0,49,0.00,,,0.00,Wunderground v.1.15,2014-01-07 02:39:00,
2014-01-06 19:44:00,32.4,15.3,30.67,SE,127,2.0,4.0,49,0.00,,,0.00,Wunderground v.1.15,2014-01-07 02:44:00,
2014-01-06 19:49:00,32.4,15.3,30.67,SE,127,4.0,6.0,49,0.00,,,0.00,Wunderground v.1.15,2014-01-07 02:49:00,
2014-01-06 19:54:00,32.4,15.3,30.66,SE,127,3.0,6.0,49,0.00,,,0.00,Wunderground v.1.15,2014-01-07 02:54:00,
2014-01-06 19:59:00,32.4,15.8,30.66,SE,127,6.0,6.0,50,0.00,,,0.00,Wunderground v.1.15,2014-01-07 02:59:00,
2014-01-06 20:04:00,32.4,15.8,30.67,SE,127,5.0,7.0,50,0.00,,,0.00,Wunderground v.1.15,2014-01-07 03:04:00,
2014-01-06 20:09:00,32.4,15.8,30.67,SE,127,1.0,7.0,50,0.00,,,0.00,Wunderground v.1.15,2014-01-07 03:09:00,
2014-01-06 20:14:00,32.5,15.9,30.67,SE,127,5.0,7.0,50,0.00,,,0.00,Wunderground v.1.15,2014-01-07 03:14:00,
2014-01-06 20:19:00,32.4,15.8,30.67,SE,127,9.0,10.0,50,0.00,,,0.00,Wunderground v.1.15,2014-01-07 03:19:00,
2014-01-06 20:24:00,32.4,15.8,30.67,SE,127,7.0,11.0,50,0.00,,,0.00,Wunderground v.1.15,2014-01-07 03:24:00,
2014-01-06 20:29:00,32.4,15.8,30.67,SE,127,9.0,11.0,50,0.00,,,0.00,Wunderground v.1.15,2014-01-07 03:29:00,
2014-01-06 20:34:00,32.5,15.9,30.67,SE,127,9.0,11.0,50,0.00,,,0.00,Wunderground v.1.15,2014-01-07 03:34:00,
2014-01-06 20:39:00,32.5,15.9,30.66,SE,127,6.0,11.0,50,0.00,,,0.00,Wunderground v.1.15,2014-01-07 03:39:00,
2014-01-06 20:44:00,32.5,15.9,30.67,SE,127,9.0,10.0,50,0.00,,,0.00,Wunderground v.1.15,2014-01-07 03:44:00,
2014-01-06 20:49:00,32.5,15.4,30.66,SE,127,10.0,13.0,49,0.00,,,0.00,Wunderground v.1.15,2014-01-07 03:49:00,
2014-01-06 20:54:00,32.6,16.0,30.66,SE,128,10.0,11.0,50,0.00,,,0.00,Wunderground v.1.15,2014-01-07 03:54:00,
2014-01-06 20:59:00,32.6,15.5,30.65,SE,127,8.0,13.0,49,0.00,,,0.00,Wunderground v.1.15,2014-01-07 03:59:00,
2014-01-06 21:04:00,32.6,15.5,30.65,SE,128,7.0,13.0,49,0.00,,,0.00,Wunderground v.1.15,2014-01-07 04:04:00,
2014-01-06 21:09:00,32.7,15.6,30.66,SE,128,8.0,13.0,49,0.00,,,0.00,Wunderground v.1.15,2014-01-07 04:09:00,
2014-01-06 21:14:00,32.7,15.6,30.66,SE,127,9.0,9.0,49,0.00,,,0.00,Wunderground v.1.15,2014-01-07 04:14:00,
2014-01-06 21:19:00,32.7,15.1,30.66,SE,128,9.0,12.0,48,0.00,,,0.00,Wunderground v.1.15,2014-01-07 04:19:00,
2014-01-06 21:24:00,32.7,15.1,30.66,SE,127,6.0,11.0,48,0.00,,,0.00,Wunderground v.1.15,2014-01-07 04:24:00,
2014-01-06 21:29:00,32.7,15.1,30.66,SE,127,6.0,11.0,48,0.00,,,0.00,Wunderground v.1.15,2014-01-07 04:29:00,
2014-01-06 21:34:00,32.6,15.1,30.65,SE,127,5.0,10.0,48,0.00,,,0.00,Wunderground v.1.15,2014-01-07 04:34:00,
2014-01-06 21:39:00,32.5,15.4,30.65,SE,127,4.0,10.0,49,0.00,,,0.00,Wunderground v.1.15,2014-01-07 04:39:00,
2014-01-06 21:44:00,32.4,15.3,30.66,SE,127,4.0,8.0,49,0.00,,,0.00,Wunderground v.1.15,2014-01-07 04:44:00,
2014-01-06 21:49:00,32.3,15.3,30.66,SE,127,3.0,8.0,49,0.00,,,0.00,Wunderground v.1.15,2014-01-07 04:49:00,
2014-01-06 21:54:00,32.2,15.2,30.66,SE,127,4.0,8.0,49,0.00,,,0.00,Wunderground v.1.15,2014-01-07 04:54:00,
2014-01-06 21:59:00,32.0,15.4,30.66,SE,127,4.0,8.0,50,0.00,,,0.00,Wunderground v.1.15,2014-01-07 04:59:00,
2014-01-06 22:01:00,32.0,15.4,30.66,SE,127,4.0,5.0,50,0.00,,,0.00,Wunderground v.1.15,2014-01-07 05:01:00,
2014-01-06 22:02:00,31.9,15.3,30.66,SE,127,3.0,5.0,50,0.00,,,0.00,Wunderground v.1.15,2014-01-07 05:02:00,
2014-01-06 22:07:00,31.7,15.2,30.66,SE,127,4.0,5.0,50,0.00,,,0.00,Wunderground v.1.15,2014-01-07 05:07:00,
2014-01-06 22:12:00,31.5,15.4,30.66,SE,127,5.0,5.0,51,0.00,,,0.00,Wunderground v.1.15,2014-01-07 05:12:00,
2014-01-06 22:17:00,31.2,15.6,30.65,SE,127,4.0,6.0,52,0.00,,,0.00,Wunderground v.1.15,2014-01-07 05:17:00,
2014-01-06 22:22:00,31.0,15.4,30.65,SE,127,3.0,5.0,52,0.00,,,0.00,Wunderground v.1.15,2014-01-07 05:22:00,
2014-01-06 22:27:00,30.9,15.8,30.65,SE,127,2.0,6.0,53,0.00,,,0.00,Wunderground v.1.15,2014-01-07 05:27:00,
2014-01-06 22:32:00,30.7,15.6,30.64,SE,127,5.0,7.0,53,0.00,,,0.00,Wunderground v.1.15,2014-01-07 05:32:00,
2014-01-06 22:37:00,30.7,15.6,30.63,SE,127,4.0,7.0,53,0.00,,,0.00,Wunderground v.1.15,2014-01-07 05:37:00,
2014-01-06 22:42:00,30.7,15.6,30.64,SE,127,1.0,4.0,53,0.00,,,0.00,Wunderground v.1.15,2014-01-07 05:42:00,
2014-01-06 22:47:00,30.7,16.0,30.64,SE,127,3.0,4.0,54,0.00,,,0.00,Wunderground v.1.15,2014-01-07 05:47:00,
2014-01-06 22:52:00,30.8,16.1,30.64,SE,127,0.0,3.0,54,0.00,,,0.00,Wunderground v.1.15,2014-01-07 05:52:00,
2014-01-06 22:57:00,30.8,16.1,30.64,SE,127,0.0,3.0,54,0.00,,,0.00,Wunderground v.1.15,2014-01-07 05:57:00,
2014-01-06 23:02:00,30.8,16.1,30.64,SE,127,0.0,0.0,54,0.00,,,0.00,Wunderground v.1.15,2014-01-07 06:02:00,
2014-01-06 23:07:00,30.8,16.1,30.64,SE,127,0.0,2.0,54,0.00,,,0.00,Wunderground v.1.15,2014-01-07 06:07:00,
2014-01-06 23:13:00,30.7,16.0,30.63,SE,127,0.0,0.0,54,0.00,,,0.00,Wunderground v.1.15,2014-01-07 06:13:00,
2014-01-06 23:18:00,30.7,16.0,30.64,SE,127,0.0,0.0,54,0.00,,,0.00,Wunderground v.1.15,2014-01-07 06:18:00,
2014-01-06 23:23:00,30.6,15.9,30.63,SE,127,0.0,0.0,54,0.00,,,0.00,Wunderground v.1.15,2014-01-07 06:23:00,
2014-01-06 23:28:00,30.6,16.3,30.63,SE,127,0.0,1.0,55,0.00,,,0.00,Wunderground v.1.15,2014-01-07 06:28:00,
2014-01-06 23:33:00,30.6,16.3,30.64,SE,127,0.0,0.0,55,0.00,,,0.00,Wunderground v.1.15,2014-01-07 06:33:00,
2014-01-06 23:38:00,30.6,16.3,30.63,SE,127,0.0,0.0,55,0.00,,,0.00,Wunderground v.1.15,2014-01-07 06:38:00,
2014-01-06 23:44:00,30.5,16.2,30.63,SE,127,0.0,0.0,55,0.00,,,0.00,Wunderground v.1.15,2014-01-07 06:44:00,
2014-01-06 23:49:00,30.5,16.2,30.63,SE,127,0.0,0.0,55,0.00,,,0.00,Wunderground v.1.15,2014-01-07 06:49:00,
2014-01-06 23:55:00,30.4,16.6,30.63,SE,127,1.0,3.0,56,0.00,,,0.00,Wunderground v.1.15,2014-01-07 06:55:00,